DECAYED

STARLINK-1565, 46037 (Decayed)

Orbit data source: Space-Track

STARLINK-1565, 46037 was a payload satellite owned by SpaceX/Seattle (US) in LEO that was launched on Fri, 07 Aug 2020 UTC via an FALCON 9 launch vehicle from the Air Force Eastern Test Range (AFETR). Payload-class satellites include a variety of spacecraft equipped with specific instruments for various scientific and technological missions. These include communications satellites like Starlink; space stations such as the ISS; scientific satellites like the Hubble; Earth observation satellites from companies like Planet Labs, Umbra, and HawkEye 360; GPS; miniature CubeSats for education and research; and military/defense satellites.

Not visible in the next 10 days
Identifier
46037, 2020-055L
Orbit
Decayed
Country
Flag of USUS
Related business
Manufacturer
SpaceX/Seattle
Mission
Decayed Commercial Communications
Bus & Motor
STARLINK, Unknown motor
Mass
260 kg wet, ~248 kg dry
Launch date (UTC)
2020-08-07 (6 years ago)
Launch vehicle
FALCON 9
Launch site
Air Force Eastern Test Range (AFETR)
Object type
Payload
Rocket body
Debris
Shape & HBR
Box + 1 Pan, 10.1 m
Radar Cross Section
13.562 m², Large (>1 m²)

Expand to show TLE details & history
Last TLE update: 1 year ago

TLE from 1 year ago
0 STARLINK-1565
1 46037U 20055L   25119.65538218  .17888121  12080-4  25298-2 0  9997
2 46037  53.0143  53.6399 0008895 217.4647 142.5777 16.34006915262158
Epoch: 2025-04-29T15:43Z
TLE epoch observation values (Epoch: 2025-04-29T15:43:45.020Z)
Latitude
-0.00005°
Longitude
-40.14965°
Altitude
187.353 km
Speed
7.792 km/s
True Right ascension
03h 34m 33s
True Declination
0° 00' 00"
Sunlit
Object was in daylight at epoch
Visualization orbit readout
Latitude
Unknown
Longitude
Unknown
Altitude
Unknown
Speed
Unknown
Apparent Right ascension
Unknown
Apparent Declination
Unknown
Sunlit
N/A
Visualization observer readout
Local Sidereal Time
09:40:42
Azimuth
Unknown
Elevation
Unknown
Doppler factor
Unknown
Orbital elements
Apogee altitude
187.921 km
Perigee altitude
176.25 km
Semi-major axis
6,560.223 km
Eccentricity
0.00089
Inclination
53.0143°
RAAN
53.6399°
Arg. of periapsis
217.4647°
True anomaly
142.63959°
Mean anomaly
142.5777°
Eccentric anomaly
142.60865°
Mean motion
4.08475 °/min
Orbital period
88.13 mins
BSTAR
0.0025298
Loading maneuver chart data...
Computing Atmospheric mass density...
Loading historical data...
Loading historical data...
Loading historical data...
Loading historical data...
Loading historical data...
Loading historical data...
Loading historical data...

Documentation

Showing up to 5 results
|